COSMOS 1275 DEB, 13468

Orbit data source: Space-Track

COSMOS 1275 DEB, 13468 is space debris in LEO originally from a launch on Thu, 04 Jun 1981 UTC launched from the Plesetsk Missile And Space Complex (PKMTR). Debris objects in space refer to the collection of defunct objects orbiting the Earth. Examples of debris include non-operational satellites, rocket bodies, and fragments generated from explosions, collisions, or faulty payload assembly.

Loading next visibility...
Identifier
13468, 1981-053FQ
Orbit
LEO
Country
Flag of CISCIS
Related business
Manufacturer
Unknown
Mission
Spacecraft
Bus & Motor
Unknown
Mass
Unknown
Launch date (UTC)
1981-06-04 (45 years ago)
Launch vehicle
Unknown
Launch site
Plesetsk Missile And Space Complex (PKMTR)
Object type
Payload
Rocket body
Debris
Shape & HBR
Unknown shape, 0.1 m
Radar Cross Section
Small (<0.1 m²)

Expand to show TLE details & history
Last TLE update: 7 hours ago

TLE from 7 hours ago
0 COSMOS 1275 DEB
1 13468U 81053FQ  26121.91345670  .00001135  00000-0  84953-3 0  9998
2 13468  82.7061 185.1174 0060990 323.0903 216.0584 13.93028116210620
Epoch: 2026-05-01T21:55Z
TLE epoch observation values (Epoch: 2026-05-01T21:55:22.658Z)
Latitude
1.14153°
Longitude
176.28873°
Altitude
956.89 km
Speed
7.355 km/s
True Right ascension
00h 19m 53s
True Declination
1° 08' 06"
Sunlit
Object was in daylight at epoch
Visualization orbit readout
Latitude
Unknown
Longitude
Unknown
Altitude
Unknown
Speed
Unknown
Apparent Right ascension
Unknown
Apparent Declination
Unknown
Sunlit
N/A
Visualization observer readout
Local Sidereal Time
12:30:14
Azimuth
Unknown
Elevation
Unknown
Doppler factor
Unknown
Orbital elements
Apogee altitude
959.653 km
Perigee altitude
870.689 km
Semi-major axis
7,293.308 km
Eccentricity
0.0061
Inclination
82.7061°
RAAN
185.1174°
Arg. of periapsis
323.0903°
True anomaly
215.64955°
Mean anomaly
216.0584°
Eccentric anomaly
215.85372°
Mean motion
3.48463 °/min
Orbital period
103.31 mins
BSTAR
0.00084953
Loading maneuver chart data...
Computing Atmospheric mass density...
Loading historical data...
Loading historical data...
Loading historical data...
Loading historical data...
Loading historical data...
Loading historical data...
Loading historical data...

Documentation

Showing up to 5 results
|